| time (UTC) | temp C | wind direction | speed KPH | gust KPH | rain 1hr cm | rain 24hr cm | rain mn cm | humidity % | barometer mb |
| 20260509012046 | 16 | 150 | 0.0 | 0.0 | 0.00 | 0.00 | 0.00 | 51 | 1012.2 |
| 20260509011543 | 16 | 150 | 0.0 | 0.0 | 0.00 | 0.00 | 0.00 | 50 | 1012.3 |
| 20260509011044 | 16 | 150 | 0.0 | 0.0 | 0.00 | 0.00 | 0.00 | 50 | 1012.2 |
| 20260509010543 | 17 | 150 | 0.0 | 0.0 | 0.00 | 0.00 | 0.00 | 51 | 1012.2 |
| 20260509010042 | 17 | 150 | 0.0 | 1.6 | 0.00 | 0.00 | 0.00 | 55 | 1012.2 |
| 20260509005540 | 17 | 150 | 0.0 | 1.6 | 0.00 | 0.00 | 0.00 | 47 | 1012.1 |
| 20260509005309 | 17 | 150 | 0.0 | 1.6 | 0.00 | 0.00 | 0.00 | 47 | 1012.2 |
| 20260509004538 | 17 | 150 | 0.0 | 4.8 | 0.00 | 0.00 | 0.00 | 46 | 1012.2 |
| 20260509004037 | 18 | 150 | 0.0 | 4.8 | 0.00 | 0.00 | 0.00 | 46 | 1012.2 |
| 20260509003536 | 18 | 182 | 1.6 | 6.4 | 0.00 | 0.00 | 0.00 | 45 | 1012.1 |
| 20260509003036 | 18 | 157 | 1.6 | 6.4 | 0.00 | 0.00 | 0.00 | 45 | 1012.1 |
| 20260509002536 | 18 | 151 | 1.6 | 6.4 | 0.00 | 0.00 | 0.00 | 44 | 1012.1 |
| 20260509002036 | 18 | 159 | 1.6 | 6.4 | 0.00 | 0.00 | 0.00 | 45 | 1012.0 |
| 20260509001807 | 18 | 166 | 0.0 | 3.2 | 0.00 | 0.00 | 0.00 | 44 | 1012.0 |
| 20260509000520 | 18 | 163 | 0.0 | 4.8 | 0.00 | 0.00 | 0.00 | 44 | 1012.0 |
| 20260509000026 | 18 | 171 | 0.0 | 3.2 | 0.00 | 0.00 | 0.00 | 44 | 1011.9 |
| 20260508235748 | 18 | 170 | 0.0 | 3.2 | 0.00 | 0.00 | 0.00 | 44 | 1012.0 |
| 20260508235248 | 19 | 232 | 1.6 | 4.8 | 0.00 | 0.00 | 0.00 | 43 | 1011.8 |
| 20260508234517 | 19 | 232 | 1.6 | 4.8 | 0.00 | 0.00 | 0.00 | 43 | 1011.8 |
| 20260508234248 | 19 | 250 | 3.2 | 8.0 | 0.00 | 0.00 | 0.00 | 43 | 1011.7 |
| 20260508233246 | 19 | 236 | 4.8 | 11.3 | 0.00 | 0.00 | 0.00 | 42 | 1011.7 |
| 20260508232516 | 20 | 217 | 4.8 | 11.3 | 0.00 | 0.00 | 0.00 | 42 | 1011.6 |
| 20260508232015 | 20 | 238 | 4.8 | 11.3 | 0.00 | 0.00 | 0.00 | 42 | 1011.6 |
| 20260508231521 | 20 | 236 | 6.4 | 24.1 | 0.00 | 0.00 | 0.00 | 41 | 1011.6 |
| 20260508231015 | 20 | 267 | 6.4 | 24.1 | 0.00 | 0.00 | 0.00 | 42 | 1011.6 |
| 20260508230516 | 20 | 222 | 8.0 | 16.1 | 0.00 | 0.00 | 0.00 | 41 | 1011.5 |
| 20260508230017 | 20 | 250 | 6.4 | 16.1 | 0.00 | 0.00 | 0.00 | 41 | 1011.5 |
| 20260508225506 | 20 | 238 | 8.0 | 19.3 | 0.00 | 0.00 | 0.00 | 42 | 1011.5 |
| 20260508225000 | 20 | 211 | 9.7 | 20.9 | 0.00 | 0.00 | 0.00 | 40 | 1011.4 |
| 20260508224455 | 20 | 217 | 9.7 | 22.5 | 0.00 | 0.00 | 0.00 | 41 | 1011.4 |
| 20260508223944 | 20 | 128 | 8.0 | 22.5 | 0.00 | 0.00 | 0.00 | 41 | 1011.4 |
| 20260508223714 | 20 | 245 | 6.4 | 14.5 | 0.00 | 0.00 | 0.00 | 42 | 1011.4 |
| 20260508222932 | 20 | 261 | 8.0 | 19.3 | 0.00 | 0.00 | 0.00 | 42 | 1011.3 |
| 20260508222430 | 20 | 215 | 8.0 | 20.9 | 0.00 | 0.00 | 0.00 | 41 | 1011.3 |
| 20260508221912 | 20 | 198 | 8.0 | 20.9 | 0.00 | 0.00 | 0.00 | 42 | 1011.3 |
| 20260508221406 | 20 | 240 | 8.0 | 17.7 | 0.00 | 0.00 | 0.00 | 41 | 1011.4 |
| 20260508220855 | 20 | 194 | 8.0 | 17.7 | 0.00 | 0.00 | 0.00 | 41 | 1011.3 |
| 20260508220350 | 20 | 189 | 6.4 | 17.7 | 0.00 | 0.00 | 0.00 | 41 | 1011.4 |
| 20260508215845 | 20 | 248 | 6.4 | 17.7 | 0.00 | 0.00 | 0.00 | 42 | 1011.4 |
| 20260508215334 | 20 | 163 | 6.4 | 12.9 | 0.00 | 0.00 | 0.00 | 42 | 1011.5 |
| 20260508214828 | 21 | 203 | 4.8 | 12.9 | 0.00 | 0.00 | 0.00 | 41 | 1011.5 |
| 20260508214322 | 21 | 232 | 4.8 | 12.9 | 0.00 | 0.00 | 0.00 | 40 | 1011.5 |
| 20260508213817 | 21 | 130 | 6.4 | 20.9 | 0.00 | 0.00 | 0.00 | 39 | 1011.6 |
| 20260508213306 | 21 | 260 | 8.0 | 24.1 | 0.00 | 0.00 | 0.00 | 41 | 1011.6 |
| 20260508212800 | 21 | 254 | 9.7 | 22.5 | 0.00 | 0.00 | 0.00 | 40 | 1011.5 |
| 20260508212251 | 20 | 241 | 8.0 | 22.5 | 0.00 | 0.00 | 0.00 | 40 | 1011.6 |
| 20260508211744 | 21 | 190 | 8.0 | 20.9 | 0.00 | 0.00 | 0.00 | 39 | 1011.5 |
| 20260508211238 | 21 | 153 | 8.0 | 20.9 | 0.00 | 0.00 | 0.00 | 39 | 1011.5 |
| 20260508210958 | 21 | 209 | 4.8 | 16.1 | 0.00 | 0.00 | 0.00 | 38 | 1011.5 |
| 20260508210234 | 22 | 250 | 4.8 | 16.1 | 0.00 | 0.00 | 0.00 | 40 | 1011.5 |
| 20260508205716 | 22 | 223 | 3.2 | 11.3 | 0.00 | 0.00 | 0.00 | 34 | 1011.6 |
| 20260508205206 | 22 | 293 | 3.2 | 9.7 | 0.00 | 0.00 | 0.00 | 38 | 1011.5 |
| 20260508204701 | 22 | 301 | 3.2 | 9.7 | 0.00 | 0.00 | 0.00 | 35 | 1011.6 |
| 20260508204154 | 22 | 104 | 4.8 | 16.1 | 0.00 | 0.00 | 0.00 | 37 | 1011.6 |
| 20260508203644 | 22 | 241 | 6.4 | 16.1 | 0.00 | 0.00 | 0.00 | 36 | 1011.6 |
| 20260508203138 | 22 | 233 | 4.8 | 14.5 | 0.00 | 0.00 | 0.00 | 36 | 1011.6 |
| 20260508202118 | 22 | 271 | 6.4 | 16.1 | 0.00 | 0.00 | 0.00 | 36 | 1011.8 |
| 20260508201612 | 22 | 265 | 4.8 | 16.1 | 0.00 | 0.00 | 0.00 | 37 | 1011.8 |
| 20260508201337 | 22 | 239 | 3.2 | 19.3 | 0.00 | 0.00 | 0.00 | 39 | 1011.8 |
| 20260508200556 | 22 | 272 | 6.4 | 19.3 | 0.00 | 0.00 | 0.00 | 40 | 1011.9 |
| 20260508200050 | 22 | 180 | 4.8 | 17.7 | 0.00 | 0.00 | 0.00 | 38 | 1011.9 |
| 20260508195544 | 22 | 303 | 4.8 | 17.7 | 0.00 | 0.00 | 0.00 | 36 | 1012.0 |
| 20260508195030 | 22 | 292 | 4.8 | 17.7 | 0.00 | 0.00 | 0.00 | 39 | 1012.1 |
| 20260508194525 | 22 | 247 | 4.8 | 14.5 | 0.00 | 0.00 | 0.00 | 35 | 1012.2 |
| 20260508194018 | 22 | 309 | 4.8 | 14.5 | 0.00 | 0.00 | 0.00 | 37 | 1012.1 |
| 20260508193739 | 22 | 277 | 4.8 | 14.5 | 0.00 | 0.00 | 0.00 | 38 | 1012.2 |
| 20260508193002 | 22 | 205 | 6.4 | 14.5 | 0.00 | 0.00 | 0.00 | 37 | 1012.3 |
| 20260508192456 | 22 | 211 | 4.8 | 16.1 | 0.00 | 0.00 | 0.00 | 37 | 1012.3 |
| 20260508191946 | 22 | 219 | 6.4 | 16.1 | 0.00 | 0.00 | 0.00 | 37 | 1012.4 |
| 20260508191440 | 22 | 267 | 6.4 | 19.3 | 0.00 | 0.00 | 0.00 | 34 | 1012.6 |
| 20260508190934 | 22 | 223 | 6.4 | 19.3 | 0.00 | 0.00 | 0.00 | 35 | 1012.7 |
| 20260508190424 | 22 | 295 | 4.8 | 14.5 | 0.00 | 0.00 | 0.00 | 37 | 1012.7 |
| 20260508190149 | 22 | 207 | 4.8 | 14.5 | 0.00 | 0.00 | 0.00 | 36 | 1012.8 |
| 20260508185412 | 22 | 208 | 4.8 | 14.5 | 0.00 | 0.00 | 0.00 | 41 | 1012.9 |
| 20260508184902 | 21 | 248 | 4.8 | 24.1 | 0.00 | 0.00 | 0.00 | 41 | 1013.1 |
| 20260508184628 | 21 | 240 | 6.4 | 24.1 | 0.00 | 0.00 | 0.00 | 37 | 1013.1 |
| 20260508183850 | 21 | 275 | 4.8 | 14.5 | 0.00 | 0.00 | 0.00 | 41 | 1013.3 |
| 20260508183339 | 21 | 202 | 3.2 | 14.5 | 0.00 | 0.03 | 0.00 | 36 | 1013.4 |
| 20260508182834 | 21 | 224 | 3.2 | 9.7 | 0.00 | 0.03 | 0.00 | 40 | 1013.4 |
| 20260508182601 | 21 | 250 | 4.8 | 11.3 | 0.00 | 0.03 | 0.00 | 39 | 1013.4 |
| 20260508181814 | 21 | 241 | 4.8 | 17.7 | 0.00 | 0.03 | 0.00 | 38 | 1013.5 |
| 20260508181540 | 21 | 215 | 4.8 | 17.7 | 0.00 | 0.03 | 0.00 | 41 | 1013.7 |
| 20260508180802 | 21 | 213 | 4.8 | 16.1 | 0.00 | 0.03 | 0.00 | 39 | 1013.7 |
| 20260508180255 | 21 | 298 | 4.8 | 16.1 | 0.00 | 0.03 | 0.00 | 38 | 1013.8 |
| 20260508175754 | 20 | 269 | 3.2 | 11.3 | 0.00 | 0.03 | 0.00 | 44 | 1013.9 |
| 20260508175254 | 20 | 313 | 3.2 | 14.5 | 0.00 | 0.03 | 0.00 | 42 | 1014.0 |
| 20260508175028 | 20 | 274 | 4.8 | 14.5 | 0.00 | 0.03 | 0.00 | 42 | 1014.1 |
| 20260508174254 | 20 | 262 | 4.8 | 16.1 | 0.00 | 0.03 | 0.00 | 39 | 1014.1 |
| 20260508173753 | 20 | 186 | 4.8 | 16.1 | 0.00 | 0.03 | 0.00 | 39 | 1014.2 |
| 20260508173251 | 20 | 294 | 4.8 | 14.5 | 0.00 | 0.03 | 0.00 | 41 | 1014.2 |
| 20260508172752 | 20 | 307 | 3.2 | 9.7 | 0.00 | 0.03 | 0.00 | 41 | 1014.2 |
| 20260508172252 | 20 | 254 | 3.2 | 11.3 | 0.00 | 0.03 | 0.00 | 41 | 1014.2 |
| 20260508171751 | 20 | 238 | 4.8 | 17.7 | 0.00 | 0.03 | 0.00 | 42 | 1014.3 |
| 20260508171252 | 20 | 290 | 4.8 | 17.7 | 0.00 | 0.03 | 0.00 | 41 | 1014.4 |
| 20260508170751 | 20 | 281 | 3.2 | 11.3 | 0.00 | 0.03 | 0.00 | 40 | 1014.5 |
| 20260508170252 | 20 | 16 | 3.2 | 11.3 | 0.00 | 0.03 | 0.00 | 42 | 1014.5 |
| 20260508165745 | 20 | 248 | 3.2 | 14.5 | 0.00 | 0.03 | 0.00 | 38 | 1014.6 |
| 20260508164739 | 20 | 235 | 4.8 | 16.1 | 0.00 | 0.03 | 0.00 | 42 | 1014.9 |
| 20260508164241 | 19 | 235 | 4.8 | 16.1 | 0.00 | 0.03 | 0.00 | 42 | 1014.8 |
| 20260508163739 | 19 | 291 | 4.8 | 11.3 | 0.00 | 0.03 | 0.00 | 44 | 1014.8 |
| 20260508163240 | 19 | 236 | 4.8 | 11.3 | 0.00 | 0.03 | 0.00 | 44 | 1014.9 |
| 20260508162737 | 19 | 227 | 3.2 | 11.3 | 0.00 | 0.03 | 0.00 | 43 | 1015.0 |
| 20260508162508 | 19 | 298 | 4.8 | 11.3 | 0.00 | 0.03 | 0.00 | 42 | 1014.9 |
| 20260508161738 | 19 | 240 | 4.8 | 14.5 | 0.00 | 0.03 | 0.00 | 45 | 1015.0 |
| 20260508161008 | 19 | 201 | 3.2 | 12.9 | 0.00 | 0.03 | 0.00 | 44 | 1015.4 |
| 20260508160238 | 18 | 230 | 3.2 | 14.5 | 0.00 | 0.05 | 0.00 | 46 | 1015.4 |
| 20260508155735 | 18 | 309 | 4.8 | 14.5 | 0.00 | 0.08 | 0.00 | 46 | 1015.5 |
| 20260508155237 | 18 | 240 | 4.8 | 11.3 | 0.00 | 0.08 | 0.00 | 46 | 1015.6 |
| 20260508155004 | 17 | 174 | 4.8 | 12.9 | 0.00 | 0.08 | 0.00 | 45 | 1015.7 |
| 20260508154230 | 18 | 201 | 4.8 | 14.5 | 0.00 | 0.08 | 0.00 | 47 | 1015.8 |
| 20260508153729 | 18 | 246 | 4.8 | 14.5 | 0.00 | 0.08 | 0.00 | 46 | 1015.8 |
| 20260508152730 | 18 | 126 | 3.2 | 11.3 | 0.00 | 0.08 | 0.00 | 46 | 1015.8 |
| 20260508152229 | 17 | 335 | 4.8 | 17.7 | 0.00 | 0.08 | 0.00 | 48 | 1015.8 |
| 20260508151728 | 17 | 246 | 3.2 | 17.7 | 0.00 | 0.08 | 0.00 | 47 | 1015.8 |
| 20260508151227 | 17 | 255 | 1.6 | 4.8 | 0.00 | 0.08 | 0.00 | 49 | 1015.9 |
| 20260508150728 | 17 | 346 | 3.2 | 6.4 | 0.00 | 0.08 | 0.00 | 48 | 1015.8 |
| 20260508150225 | 17 | 296 | 1.6 | 12.9 | 0.00 | 0.08 | 0.00 | 46 | 1016.0 |
| 20260508145725 | 17 | 273 | 3.2 | 12.9 | 0.00 | 0.08 | 0.00 | 47 | 1016.0 |
| 20260508145457 | 17 | 269 | 4.8 | 12.9 | 0.00 | 0.08 | 0.00 | 49 | 1016.0 |
| 20260508144952 | 17 | 228 | 4.8 | 12.9 | 0.00 | 0.08 | 0.00 | 49 | 1016.0 |
| 20260508144222 | 16 | 220 | 3.2 | 14.5 | 0.00 | 0.08 | 0.00 | 50 | 1016.0 |
| 20260508143721 | 16 | 227 | 3.2 | 14.5 | 0.00 | 0.08 | 0.00 | 52 | 1016.1 |
| 20260508143221 | 16 | 190 | 6.4 | 14.5 | 0.00 | 0.08 | 0.00 | 52 | 1016.1 |
| 20260508142720 | 16 | 212 | 4.8 | 14.5 | 0.00 | 0.08 | 0.00 | 53 | 1016.1 |
| 20260508142220 | 16 | 213 | 3.2 | 12.9 | 0.00 | 0.08 | 0.00 | 52 | 1016.2 |
| 20260508141720 | 15 | 189 | 4.8 | 12.9 | 0.00 | 0.08 | 0.00 | 53 | 1016.2 |
| 20260508141219 | 15 | 247 | 3.2 | 12.9 | 0.00 | 0.08 | 0.00 | 56 | 1016.2 |
| 20260508140720 | 15 | 216 | 3.2 | 8.0 | 0.00 | 0.08 | 0.00 | 55 | 1016.2 |
| 20260508140219 | 15 | 205 | 1.6 | 8.0 | 0.00 | 0.08 | 0.00 | 54 | 1016.3 |
| 20260508135720 | 15 | 220 | 3.2 | 6.4 | 0.00 | 0.08 | 0.00 | 57 | 1016.3 |
| 20260508135219 | 15 | 238 | 3.2 | 6.4 | 0.00 | 0.08 | 0.00 | 60 | 1016.4 |
| 20260508134721 | 14 | 218 | 3.2 | 8.0 | 0.00 | 0.08 | 0.00 | 57 | 1016.4 |
| 20260508134220 | 14 | 232 | 3.2 | 9.7 | 0.00 | 0.08 | 0.00 | 59 | 1016.4 |
| 20260508133719 | 13 | 211 | 3.2 | 9.7 | 0.00 | 0.08 | 0.00 | 58 | 1016.4 |
| 20260508133220 | 13 | 176 | 3.2 | 8.0 | 0.00 | 0.08 | 0.00 | 59 | 1016.4 |
| 20260508132716 | 13 | 158 | 3.2 | 8.0 | 0.00 | 0.08 | 0.00 | 60 | 1016.4 |
| 20260508132215 | 13 | 203 | 3.2 | 8.0 | 0.00 | 0.08 | 0.00 | 61 | 1016.5 |
| 20260508131946 | 13 | 270 | 3.2 | 8.0 | 0.00 | 0.08 | 0.00 | 59 | 1016.5 |
| 20260508131446 | 12 | 200 | 3.2 | 8.0 | 0.00 | 0.08 | 0.00 | 65 | 1016.5 |
| 20260508130946 | 12 | 188 | 1.6 | 8.0 | 0.00 | 0.08 | 0.00 | 66 | 1016.6 |
| 20260508130215 | 12 | 221 | 1.6 | 4.8 | 0.00 | 0.08 | 0.00 | 70 | 1016.6 |
| 20260508125716 | 11 | 236 | 1.6 | 4.8 | 0.00 | 0.08 | 0.00 | 75 | 1016.6 |
| 20260508125216 | 11 | 242 | 1.6 | 4.8 | 0.00 | 0.08 | 0.00 | 78 | 1016.8 |
| 20260508124942 | 10 | 232 | 1.6 | 4.8 | 0.00 | 0.08 | 0.00 | 80 | 1016.8 |
| 20260508124212 | 10 | 232 | 0.0 | 4.8 | 0.00 | 0.08 | 0.00 | 80 | 1016.8 |
| 20260508123942 | 10 | 232 | 0.0 | 3.2 | 0.00 | 0.08 | 0.00 | 82 | 1016.8 |
| 20260508123211 | 9 | 232 | 0.0 | 3.2 | 0.00 | 0.08 | 0.00 | 87 | 1016.8 |
| 20260508122711 | 9 | 232 | 1.6 | 6.4 | 0.00 | 0.08 | 0.00 | 89 | 1016.8 |
| 20260508122209 | 8 | 232 | 3.2 | 6.4 | 0.00 | 0.08 | 0.00 | 88 | 1016.6 |
| 20260508121709 | 7 | 236 | 3.2 | 8.0 | 0.00 | 0.08 | 0.00 | 88 | 1016.6 |
| 20260508121440 | 7 | 210 | 1.6 | 8.0 | 0.00 | 0.08 | 0.00 | 91 | 1016.5 |
| 20260508120708 | 6 | 240 | 1.6 | 4.8 | 0.00 | 0.08 | 0.00 | 95 | 1016.6 |
| 20260508120208 | 6 | 173 | 1.6 | 4.8 | 0.00 | 0.08 | 0.00 | 98 | 1016.5 |
| 20260508115705 | 5 | 165 | 1.6 | 4.8 | 0.00 | 0.08 | 0.00 | 98 | 1016.5 |
| 20260508115435 | 5 | 229 | 0.0 | 1.6 | 0.00 | 0.08 | 0.00 | 98 | 1016.5 |
| 20260508114703 | 5 | 229 | 0.0 | 1.6 | 0.00 | 0.08 | 0.00 | 98 | 1016.5 |
| 20260508114203 | 4 | 229 | 0.0 | 1.6 | 0.00 | 0.08 | 0.00 | 98 | 1016.4 |
| 20260508113704 | 4 | 229 | 0.0 | 0.0 | 0.00 | 0.08 | 0.00 | 98 | 1016.3 |
| 20260508113201 | 3 | 229 | 0.0 | 0.0 | 0.00 | 0.08 | 0.00 | 98 | 1016.2 |
| 20260508112701 | 3 | 229 | 0.0 | 0.0 | 0.00 | 0.08 | 0.00 | 97 | 1016.1 |
| 20260508112201 | 3 | 229 | 0.0 | 0.0 | 0.00 | 0.08 | 0.00 | 97 | 1016.1 |
| 20260508111931 | 3 | 229 | 0.0 | 0.0 | 0.00 | 0.08 | 0.00 | 97 | 1016.1 |
| 20260508111201 | 3 | 229 | 0.0 | 0.0 | 0.00 | 0.08 | 0.00 | 97 | 1016.0 |
| 20260508110658 | 3 | 229 | 0.0 | 0.0 | 0.00 | 0.08 | 0.00 | 96 | 1015.9 |
| 20260508110158 | 3 | 229 | 0.0 | 0.0 | 0.00 | 0.08 | 0.00 | 96 | 1015.9 |
| 20260508105142 | 3 | 229 | 0.0 | 0.0 | 0.00 | 0.08 | 0.00 | 95 | 1015.8 |
| 20260508104636 | 3 | 229 | 0.0 | 0.0 | 0.00 | 0.08 | 0.00 | 95 | 1015.6 |
| 20260508104130 | 3 | 229 | 0.0 | 0.0 | 0.00 | 0.08 | 0.00 | 94 | 1015.5 |
| 20260508103620 | 3 | 229 | 0.0 | 1.6 | 0.00 | 0.08 | 0.00 | 94 | 1015.4 |
| 20260508103115 | 3 | 229 | 0.0 | 1.6 | 0.00 | 0.08 | 0.00 | 94 | 1015.2 |
| 20260508102840 | 3 | 229 | 0.0 | 0.0 | 0.00 | 0.08 | 0.00 | 95 | 1015.1 |
| 20260508102055 | 3 | 229 | 0.0 | 0.0 | 0.00 | 0.08 | 0.00 | 94 | 1015.1 |
| 20260508101548 | 3 | 229 | 0.0 | 1.6 | 0.00 | 0.08 | 0.00 | 94 | 1015.0 |
| 20260508101042 | 3 | 229 | 0.0 | 1.6 | 0.00 | 0.08 | 0.00 | 94 | 1015.0 |
| 20260508100532 | 3 | 229 | 0.0 | 0.0 | 0.00 | 0.08 | 0.00 | 94 | 1014.9 |
| 20260508100027 | 3 | 229 | 0.0 | 0.0 | 0.00 | 0.08 | 0.00 | 94 | 1014.9 |
| 20260508095521 | 4 | 229 | 0.0 | 0.0 | 0.00 | 0.08 | 0.00 | 94 | 1014.7 |
| 20260508095007 | 4 | 229 | 0.0 | 0.0 | 0.00 | 0.08 | 0.00 | 94 | 1014.7 |
| 20260508094500 | 4 | 229 | 0.0 | 0.0 | 0.00 | 0.08 | 0.00 | 94 | 1014.6 |
| 20260508094224 | 4 | 229 | 0.0 | 0.0 | 0.00 | 0.08 | 0.00 | 94 | 1014.6 |
| 20260508093716 | 4 | 229 | 0.0 | 0.0 | 0.00 | 0.08 | 0.00 | 94 | 1014.6 |
| 20260508092432 | 4 | 229 | 0.0 | 0.0 | 0.00 | 0.08 | 0.00 | 94 | 1014.6 |
| 20260508091923 | 5 | 229 | 0.0 | 0.0 | 0.00 | 0.08 | 0.00 | 94 | 1014.6 |
| 20260508091416 | 5 | 229 | 0.0 | 0.0 | 0.00 | 0.08 | 0.00 | 93 | 1014.6 |
| 20260508090911 | 5 | 229 | 0.0 | 0.0 | 0.00 | 0.08 | 0.00 | 94 | 1014.5 |
| 20260508090400 | 5 | 229 | 0.0 | 0.0 | 0.00 | 0.08 | 0.00 | 93 | 1014.5 |
| 20260508085854 | 5 | 229 | 0.0 | 3.2 | 0.00 | 0.08 | 0.00 | 93 | 1014.4 |
| 20260508085349 | 5 | 229 | 0.0 | 3.2 | 0.00 | 0.08 | 0.00 | 93 | 1014.5 |
| 20260508084838 | 5 | 229 | 0.0 | 1.6 | 0.00 | 0.08 | 0.00 | 93 | 1014.5 |
| 20260508084332 | 5 | 229 | 0.0 | 1.6 | 0.00 | 0.08 | 0.00 | 92 | 1014.4 |
| 20260508083827 | 5 | 229 | 0.0 | 3.2 | 0.00 | 0.08 | 0.00 | 92 | 1014.4 |
| 20260508083318 | 5 | 229 | 0.0 | 3.2 | 0.00 | 0.08 | 0.00 | 91 | 1014.4 |
| 20260508082810 | 5 | 229 | 1.6 | 3.2 | 0.00 | 0.08 | 0.00 | 91 | 1014.3 |
| 20260508082306 | 6 | 229 | 1.6 | 3.2 | 0.00 | 0.08 | 0.00 | 90 | 1014.2 |
| 20260508081754 | 6 | 229 | 1.6 | 3.2 | 0.00 | 0.08 | 0.00 | 90 | 1014.2 |
| 20260508081249 | 6 | 229 | 1.6 | 3.2 | 0.00 | 0.08 | 0.00 | 89 | 1014.2 |
| 20260508080742 | 6 | 229 | 1.6 | 3.2 | 0.00 | 0.08 | 0.00 | 89 | 1014.1 |
| 20260508080232 | 6 | 229 | 0.0 | 3.2 | 0.00 | 0.08 | 0.00 | 87 | 1014.1 |
| 20260508075726 | 7 | 229 | 0.0 | 1.6 | 0.00 | 0.08 | 0.00 | 87 | 1014.1 |
| 20260508075221 | 7 | 229 | 0.0 | 1.6 | 0.00 | 0.08 | 0.00 | 84 | 1014.1 |
| 20260508074938 | 7 | 229 | 0.0 | 1.6 | 0.00 | 0.08 | 0.00 | 81 | 1014.0 |
| 20260508074200 | 7 | 229 | 0.0 | 1.6 | 0.00 | 0.08 | 0.00 | 83 | 1014.0 |
| 20260508073654 | 7 | 229 | 0.0 | 1.6 | 0.00 | 0.08 | 0.00 | 84 | 1014.0 |
| 20260508073144 | 6 | 229 | 0.0 | 1.6 | 0.00 | 0.08 | 0.00 | 84 | 1013.9 |
| 20260508072638 | 6 | 186 | 0.0 | 1.6 | 0.00 | 0.08 | 0.00 | 87 | 1013.9 |
| 20260508072403 | 6 | 186 | 0.0 | 1.6 | 0.00 | 0.08 | 0.00 | 88 | 1013.9 |
| 20260508071618 | 6 | 186 | 0.0 | 1.6 | 0.00 | 0.08 | 0.00 | 90 | 1013.9 |
| 20260508071343 | 6 | 186 | 0.0 | 0.0 | 0.00 | 0.08 | 0.00 | 92 | 1013.8 |
| 20260508070606 | 6 | 186 | 0.0 | 1.6 | 0.00 | 0.08 | 0.00 | 93 | 1013.7 |
| 20260508070056 | 6 | 186 | 0.0 | 1.6 | 0.00 | 0.08 | 0.00 | 94 | 1013.6 |
| 20260508065550 | 6 | 186 | 0.0 | 3.2 | 0.00 | 0.08 | 0.00 | 94 | 1013.6 |
| 20260508065044 | 6 | 186 | 0.0 | 1.6 | 0.00 | 0.08 | 0.00 | 95 | 1013.5 |
| 20260508064534 | 6 | 237 | 0.0 | 1.6 | 0.00 | 0.08 | 0.00 | 96 | 1013.4 |
| 20260508064028 | 5 | 249 | 0.0 | 1.6 | 0.00 | 0.08 | 0.00 | 97 | 1013.3 |
| 20260508063523 | 5 | 248 | 0.0 | 1.6 | 0.00 | 0.08 | 0.00 | 96 | 1013.3 |
| 20260508063012 | 5 | 248 | 0.0 | 1.6 | 0.00 | 0.08 | 0.00 | 95 | 1013.2 |
| 20260508062506 | 6 | 248 | 0.0 | 1.6 | 0.00 | 0.08 | 0.00 | 95 | 1013.1 |
| 20260508062000 | 6 | 249 | 0.0 | 1.6 | 0.00 | 0.08 | 0.00 | 96 | 1013.0 |
| 20260508061452 | 6 | 249 | 0.0 | 0.0 | 0.00 | 0.08 | 0.00 | 96 | 1013.0 |
| 20260508060952 | 6 | 249 | 0.0 | 1.6 | 0.00 | 0.08 | 0.00 | 96 | 1012.9 |
| 20260508060452 | 6 | 248 | 0.0 | 1.6 | 0.00 | 0.08 | 0.00 | 96 | 1012.9 |
| 20260508055952 | 6 | 249 | 0.0 | 1.6 | 0.00 | 0.08 | 0.00 | 96 | 1012.9 |
| 20260508055452 | 6 | 249 | 0.0 | 0.0 | 0.00 | 0.08 | 0.00 | 96 | 1012.9 |
| 20260508054953 | 7 | 248 | 0.0 | 1.6 | 0.00 | 0.08 | 0.00 | 96 | 1013.0 |
| 20260508054452 | 7 | 249 | 0.0 | 3.2 | 0.00 | 0.08 | 0.00 | 96 | 1012.9 |
| 20260508053952 | 7 | 248 | 0.0 | 3.2 | 0.00 | 0.08 | 0.00 | 96 | 1012.9 |
| 20260508053453 | 7 | 248 | 0.0 | 1.6 | 0.00 | 0.08 | 0.00 | 96 | 1013.0 |
| 20260508052952 | 7 | 248 | 0.0 | 1.6 | 0.00 | 0.08 | 0.00 | 96 | 1013.0 |
| 20260508052452 | 7 | 249 | 0.0 | 3.2 | 0.00 | 0.08 | 0.00 | 96 | 1013.1 |
| 20260508051952 | 7 | 248 | 0.0 | 3.2 | 0.00 | 0.08 | 0.00 | 96 | 1013.1 |
| 20260508051452 | 7 | 249 | 0.0 | 3.2 | 0.00 | 0.10 | 0.00 | 96 | 1013.1 |
| 20260508051221 | 7 | 248 | 0.0 | 3.2 | 0.00 | 0.10 | 0.00 | 96 | 1013.1 |
| 20260508050444 | 7 | 249 | 0.0 | 3.2 | 0.00 | 0.13 | 0.00 | 97 | 1013.0 |
| 20260508045934 | 7 | 248 | 0.0 | 1.6 | 0.00 | 0.13 | 0.00 | 96 | 1013.0 |
| 20260508045428 | 7 | 248 | 0.0 | 1.6 | 0.00 | 0.13 | 0.00 | 96 | 1013.0 |
| 20260508044922 | 7 | 249 | 0.0 | 1.6 | 0.00 | 0.18 | 0.00 | 96 | 1012.9 |
| 20260508044408 | 7 | 249 | 0.0 | 1.6 | 0.00 | 0.30 | 0.00 | 96 | 1012.8 |
| 20260508043902 | 7 | 249 | 0.0 | 1.6 | 0.00 | 0.33 | 0.00 | 96 | 1012.8 |
| 20260508043355 | 7 | 249 | 0.0 | 1.6 | 0.00 | 0.36 | 0.00 | 94 | 1012.7 |
| 20260508042846 | 8 | 248 | 0.0 | 0.0 | 0.00 | 0.36 | 0.00 | 96 | 1012.5 |
| 20260508042340 | 8 | 249 | 0.0 | 1.6 | 0.00 | 0.36 | 0.00 | 96 | 1012.5 |
| 20260508042106 | 8 | 249 | 0.0 | 1.6 | 0.00 | 0.38 | 0.00 | 95 | 1012.5 |
| 20260508041325 | 8 | 249 | 0.0 | 1.6 | 0.00 | 0.38 | 0.00 | 95 | 1012.6 |
| 20260508040823 | 8 | 248 | 0.0 | 0.0 | 0.00 | 0.38 | 0.00 | 95 | 1012.4 |
| 20260508040320 | 8 | 249 | 0.0 | 0.0 | 0.00 | 0.41 | 0.00 | 95 | 1012.4 |
| 20260508040051 | 8 | 249 | 0.0 | 1.6 | 0.00 | 0.41 | 0.41 | 95 | 1012.4 |
| 20260508035551 | 8 | 249 | 0.0 | 4.8 | 0.00 | 0.41 | 0.41 | 95 | 1012.3 |
| 20260508035052 | 8 | 249 | 0.0 | 4.8 | 0.00 | 0.46 | 0.41 | 95 | 1012.3 |
| 20260508034551 | 8 | 248 | 0.0 | 3.2 | 0.00 | 0.46 | 0.41 | 93 | 1012.3 |
| 20260508033320 | 9 | 248 | 0.0 | 1.6 | 0.00 | 0.48 | 0.41 | 93 | 1012.2 |
| 20260508033054 | 9 | 248 | 0.0 | 1.6 | 0.00 | 0.48 | 0.41 | 93 | 1012.2 |
| 20260508032319 | 9 | 249 | 0.0 | 1.6 | 0.00 | 0.48 | 0.41 | 94 | 1012.1 |
| 20260508031819 | 10 | 249 | 0.0 | 1.6 | 0.00 | 0.48 | 0.41 | 93 | 1012.1 |
| 20260508031318 | 10 | 249 | 0.0 | 0.0 | 0.00 | 0.48 | 0.41 | 92 | 1012.1 |
| 20260508030816 | 10 | 248 | 0.0 | 0.0 | 0.00 | 0.48 | 0.41 | 91 | 1012.1 |
| 20260508030316 | 10 | 248 | 0.0 | 0.0 | 0.00 | 0.48 | 0.41 | 91 | 1012.1 |
| 20260508025816 | 10 | 248 | 0.0 | 0.0 | 0.00 | 0.48 | 0.41 | 91 | 1012.0 |
| 20260508025310 | 10 | 248 | 0.0 | 0.0 | 0.00 | 0.48 | 0.41 | 91 | 1012.0 |
| 20260508024804 | 10 | 249 | 0.0 | 0.0 | 0.00 | 0.48 | 0.41 | 90 | 1011.9 |
| 20260508024249 | 10 | 249 | 0.0 | 0.0 | 0.00 | 0.48 | 0.41 | 90 | 1012.0 |
| 20260508023744 | 11 | 249 | 0.0 | 3.2 | 0.00 | 0.48 | 0.41 | 90 | 1011.9 |
| 20260508023237 | 11 | 248 | 1.6 | 4.8 | 0.00 | 0.48 | 0.41 | 90 | 1011.9 |
| 20260508022457 | 11 | 234 | 1.6 | 4.8 | 0.00 | 0.48 | 0.41 | 89 | 1011.8 |
| 20260508021950 | 11 | 234 | 1.6 | 3.2 | 0.00 | 0.48 | 0.41 | 89 | 1011.8 |
| 20260508021218 | 11 | 286 | 1.6 | 4.8 | 0.00 | 0.48 | 0.41 | 89 | 1011.7 |
| 20260508020719 | 11 | 250 | 1.6 | 6.4 | 0.00 | 0.48 | 0.41 | 88 | 1011.7 |
| 20260508020452 | 11 | 215 | 1.6 | 6.4 | 0.00 | 0.48 | 0.41 | 88 | 1011.7 |
| 20260508015719 | 11 | 213 | 1.6 | 4.8 | 0.00 | 0.48 | 0.41 | 88 | 1011.7 |
| 20260508015448 | 11 | 210 | 1.6 | 4.8 | 0.00 | 0.48 | 0.41 | 88 | 1011.6 |
| 20260508014947 | 11 | 209 | 3.2 | 4.8 | 0.00 | 0.48 | 0.41 | 88 | 1011.7 |
| 20260508014214 | 11 | 223 | 3.2 | 6.4 | 0.00 | 0.48 | 0.41 | 87 | 1011.6 |
| 20260508013717 | 11 | 236 | 1.6 | 6.4 | 0.00 | 0.48 | 0.41 | 87 | 1011.5 |
| 20260508013215 | 11 | 215 | 1.6 | 4.8 | 0.00 | 0.48 | 0.41 | 87 | 1011.5 |
| 20260508012714 | 11 | 227 | 1.6 | 4.8 | 0.00 | 0.48 | 0.41 | 87 | 1011.3 |
| 20260508012446 | 11 | 224 | 1.6 | 4.8 | 0.00 | 0.48 | 0.41 | 86 | 1011.3 |